Location: �terpigny
(49.8910°N, 2.9249°E)
Time: 11:39:57
(UTC+00:00)

CUBESAT XI-V - Pass Details

Date: 28 June 2022
Orbit: 668 x 690 km, 98.1° (Epoch: 17 August)

Event Time Altitude Azimuth Distance (km) Brightness Sun altitude
Exits shadow 02:48:10 - 228° (SW) 2,235 ? -7.0°
Reaches altitude 10° 02:48:40 10° 233° (SW) 2,110 ? -7.0°
Maximum altitude 02:51:29 16° 271° (W) 1,741 ? -6.7°
Drops below altitude 10° 02:54:20 10° 309° (NW) 2,113 ? -6.4°
Sets 02:57:24 0° 331° (NNW) 3,030 ? -6.0°
